Location: Brown Observing Site
(43.4354°N, 116.3366°W)
Time: 15:50:07
(UTC-06:00)

Envisat - Visible Passes

Search period start: 01 October 2020 00:00
Search period end: 11 October 2020 00:00
Orbit: 764 x 766 km, 98.1° (Epoch: 01 October)

Date Brightness Start Highest point End Pass type
(mag) Time Alt. Az. Time Alt. Az. Time Alt. Az.
01 Oct 5.1 07:09:12 10° NNE 07:13:47 33° E 07:18:20 10° SSE visible
01 Oct 6.0 20:05:00 10° SW 20:08:48 21° W 20:12:38 10° NW visible
02 Oct 6.2 06:33:43 10° NE 06:36:39 15° E 06:39:34 10° SE visible
03 Oct 6.5 20:32:39 10° WSW 20:34:33 12° W 20:36:26 10° WNW visible
04 Oct 5.5 06:58:06 10° NE 07:02:21 26° E 07:06:34 10° SSE visible
04 Oct 5.6 19:53:07 10° SSW 19:57:20 26° W 20:01:36 10° NW visible
05 Oct 6.5 06:23:18 10° ENE 06:25:09 12° E 06:26:58 10° ESE visible
06 Oct 6.3 20:20:05 10° SW 20:23:02 15° W 20:26:00 10° NW visible
07 Oct 5.9 06:47:04 10° NE 06:50:53 21° E 06:54:40 10° SE visible
07 Oct 5.1 19:41:21 10° SSW 19:45:54 33° W 19:50:28 10° NNW visible
09 Oct 4.9 07:11:51 10° NNE 07:16:31 36° E 07:21:09 10° SSE visible
09 Oct 6.0 20:07:56 10° SW 20:11:33 19° W 20:15:11 10° NW visible
10 Oct 6.2 06:36:11 10° NE 06:39:23 17° E 06:42:36 10° SE visible
10 Oct 4.6 19:29:41 10° SSW 19:34:28 42° W 19:39:17 10° NNW visible
